| time (UTC) | temp F | wind direction | speed MPH | gust MPH | rain 1hr in | rain 24hr in | rain mn in | humidity % | barometer mb |
| 20260906073220 | 61 | 180 | 0.0 | 0.0 | 0.00 | 0.00 | 0.00 | 89 | 1034.5 |
| 20260906072222 | 61 | 180 | 0.0 | 0.0 | 0.00 | 0.00 | 0.00 | 89 | 1034.5 |
| 20260906071319 | 61 | 180 | 0.0 | 0.0 | 0.00 | 0.00 | 0.00 | 87 | 1034.7 |
| 20260906070320 | 61 | 180 | 0.0 | 0.0 | 0.00 | 0.00 | 0.00 | 88 | 1034.5 |
| 20260906065320 | 61 | 180 | 0.0 | 0.0 | 0.00 | 0.00 | 0.00 | 87 | 1034.6 |
| 20260906064419 | 61 | 180 | 0.0 | 0.0 | 0.00 | 0.00 | 0.00 | 86 | 1034.6 |
| 20260906063518 | 61 | 180 | 0.0 | 0.0 | 0.00 | 0.00 | 0.00 | 87 | 1034.6 |
| 20260906062521 | 61 | 180 | 0.0 | 0.0 | 0.00 | 0.00 | 0.00 | 86 | 1034.7 |
| 20260906061519 | 62 | 180 | 0.0 | 0.0 | 0.00 | 0.00 | 0.00 | 85 | 1034.8 |
| 20260906061421 | 62 | 180 | 0.0 | 0.0 | 0.00 | 0.00 | 0.00 | 84 | 1034.8 |
| 20260906060519 | 62 | 180 | 0.0 | 0.0 | 0.00 | 0.00 | 0.00 | 85 | 1035.1 |
| 20260906055521 | 62 | 180 | 0.0 | 0.0 | 0.00 | 0.00 | 0.00 | 84 | 1035.0 |
| 20260906054521 | 62 | 180 | 0.0 | 0.0 | 0.00 | 0.00 | 0.00 | 84 | 1035.1 |
| 20260906054421 | 62 | 180 | 0.0 | 0.0 | 0.00 | 0.00 | 0.00 | 85 | 1035.1 |
| 20260906053420 | 62 | 180 | 0.0 | 0.0 | 0.00 | 0.00 | 0.00 | 84 | 1035.1 |
| 20260906051520 | 62 | 180 | 0.0 | 0.0 | 0.00 | 0.00 | 0.00 | 84 | 1035.2 |
| 20260906050619 | 63 | 180 | 0.0 | 0.0 | 0.00 | 0.00 | 0.00 | 84 | 1035.2 |
| 20260906045621 | 63 | 180 | 0.0 | 0.0 | 0.00 | 0.00 | 0.00 | 83 | 1035.2 |
| 20260906044719 | 63 | 180 | 0.0 | 0.0 | 0.00 | 0.00 | 0.00 | 82 | 1035.3 |
| 20260906043719 | 63 | 180 | 0.0 | 0.0 | 0.00 | 0.00 | 0.00 | 82 | 1035.2 |
| 20260906042719 | 64 | 180 | 0.0 | 0.0 | 0.00 | 0.00 | 0.00 | 83 | 1035.2 |
| 20260906041719 | 63 | 180 | 0.0 | 0.0 | 0.00 | 0.00 | 0.00 | 82 | 1035.2 |
| 20260906034912 | 63 | 180 | 0.0 | 0.0 | 0.00 | 0.00 | 0.00 | 82 | 1035.0 |
| 20260906033914 | 64 | 180 | 0.0 | 0.0 | 0.00 | 0.00 | 0.00 | 80 | 1035.0 |
| 20260906032914 | 64 | 180 | 0.0 | 0.0 | 0.00 | 0.00 | 0.00 | 80 | 1035.0 |
| 20260906030915 | 64 | 180 | 0.0 | 0.0 | 0.00 | 0.00 | 0.00 | 81 | 1034.8 |
| 20260906024915 | 64 | 180 | 0.0 | 0.0 | 0.00 | 0.00 | 0.00 | 80 | 1034.7 |
| 20260906023015 | 65 | 180 | 0.0 | 0.0 | 0.00 | 0.00 | 0.00 | 80 | 1034.7 |
| 20260906022112 | 65 | 180 | 0.0 | 0.0 | 0.00 | 0.00 | 0.00 | 80 | 1034.6 |
| 20260906021114 | 65 | 180 | 0.0 | 0.0 | 0.00 | 0.00 | 0.00 | 79 | 1034.6 |
| 20260906020113 | 65 | 180 | 0.0 | 0.0 | 0.00 | 0.00 | 0.00 | 79 | 1034.6 |
| 20260906015114 | 66 | 180 | 0.0 | 0.0 | 0.00 | 0.00 | 0.00 | 77 | 1034.6 |
| 20260906014113 | 66 | 180 | 0.0 | 0.0 | 0.00 | 0.00 | 0.00 | 78 | 1034.5 |
| 20260906012114 | 66 | 180 | 0.0 | 0.0 | 0.00 | 0.00 | 0.00 | 77 | 1034.3 |
| 20260906011115 | 67 | 180 | 0.0 | 0.0 | 0.00 | 0.00 | 0.00 | 77 | 1034.2 |
| 20260906005114 | 67 | 180 | 0.0 | 0.0 | 0.00 | 0.00 | 0.00 | 76 | 1034.0 |
| 20260906004115 | 67 | 180 | 0.0 | 0.0 | 0.00 | 0.00 | 0.00 | 75 | 1034.0 |
| 20260906004013 | 67 | 180 | 0.0 | 0.0 | 0.00 | 0.00 | 0.00 | 75 | 1034.0 |
| 20260906003014 | 68 | 180 | 0.0 | 0.0 | 0.00 | 0.00 | 0.00 | 73 | 1033.7 |
| 20260906002913 | 68 | 180 | 0.0 | 0.0 | 0.00 | 0.00 | 0.00 | 72 | 1033.7 |
| 20260906001915 | 68 | 180 | 0.0 | 0.0 | 0.00 | 0.00 | 0.00 | 73 | 1033.6 |
| 20260906001013 | 68 | 180 | 0.0 | 0.0 | 0.00 | 0.00 | 0.00 | 72 | 1033.3 |
| 20260906000014 | 69 | 180 | 0.0 | 0.0 | 0.00 | 0.00 | 0.00 | 72 | 1033.3 |
| 20260905235914 | 69 | 180 | 0.0 | 0.0 | 0.00 | 0.00 | 0.00 | 72 | 1033.3 |
| 20260905235013 | 69 | 180 | 0.0 | 0.0 | 0.00 | 0.00 | 0.00 | 69 | 1033.2 |
| 20260905234016 | 70 | 180 | 0.0 | 0.0 | 0.00 | 0.00 | 0.00 | 68 | 1033.0 |
| 20260905233015 | 71 | 180 | 0.0 | 0.0 | 0.00 | 0.00 | 0.00 | 66 | 1032.9 |
| 20260905232112 | 71 | 180 | 0.0 | 0.0 | 0.00 | 0.00 | 0.00 | 67 | 1033.0 |
| 20260905231114 | 72 | 180 | 0.0 | 0.0 | 0.00 | 0.00 | 0.00 | 66 | 1032.8 |
| 20260905230131 | 72 | 180 | 0.0 | 0.0 | 0.00 | 0.00 | 0.00 | 64 | 1032.8 |
| 20260905225215 | 73 | 180 | 0.0 | 0.0 | 0.00 | 0.00 | 0.00 | 63 | 1032.8 |
| 20260905223313 | 74 | 180 | 0.0 | 0.0 | 0.00 | 0.00 | 0.00 | 60 | 1032.8 |
| 20260905222316 | 74 | 180 | 0.0 | 0.0 | 0.00 | 0.00 | 0.00 | 60 | 1032.7 |
| 20260905221414 | 74 | 180 | 0.0 | 2.0 | 0.00 | 0.00 | 0.00 | 61 | 1032.5 |
| 20260905221314 | 74 | 180 | 0.0 | 0.0 | 0.00 | 0.00 | 0.00 | 61 | 1032.5 |
| 20260905221212 | 74 | 180 | 0.0 | 0.0 | 0.00 | 0.00 | 0.00 | 62 | 1032.5 |
| 20260905220214 | 75 | 180 | 0.0 | 0.0 | 0.00 | 0.00 | 0.00 | 61 | 1032.5 |
| 20260905215129 | 75 | 180 | 0.0 | 0.0 | 0.00 | 0.00 | 0.00 | 59 | 1032.4 |
| 20260905213214 | 76 | 180 | 0.0 | 1.0 | 0.00 | 0.00 | 0.00 | 58 | 1032.5 |
| 20260905212215 | 76 | 202 | 0.0 | 0.0 | 0.00 | 0.00 | 0.00 | 59 | 1032.5 |
| 20260905211215 | 77 | 157 | 0.0 | 0.0 | 0.00 | 0.00 | 0.00 | 58 | 1032.6 |
| 20260905205213 | 78 | 157 | 0.0 | 0.0 | 0.00 | 0.00 | 0.00 | 56 | 1032.3 |
| 20260905204214 | 79 | 157 | 0.0 | 0.0 | 0.00 | 0.00 | 0.00 | 56 | 1032.3 |
| 20260905203312 | 79 | 112 | 0.0 | 0.0 | 0.00 | 0.00 | 0.00 | 56 | 1032.4 |
| 20260905202314 | 77 | 180 | 0.0 | 1.0 | 0.00 | 0.00 | 0.00 | 63 | 1032.4 |
| 20260905201412 | 76 | 90 | 0.0 | 0.0 | 0.00 | 0.00 | 0.00 | 64 | 1032.5 |
| 20260905200416 | 77 | 90 | 0.0 | 0.0 | 0.00 | 0.00 | 0.00 | 64 | 1032.6 |
| 20260905195412 | 77 | 135 | 0.0 | 0.0 | 0.00 | 0.00 | 0.00 | 60 | 1032.7 |
| 20260905194414 | 78 | 135 | 0.0 | 0.0 | 0.00 | 0.00 | 0.00 | 58 | 1032.7 |
| 20260905193413 | 79 | 135 | 0.0 | 0.0 | 0.00 | 0.00 | 0.00 | 55 | 1032.8 |
| 20260905192414 | 80 | 135 | 0.0 | 0.0 | 0.00 | 0.00 | 0.00 | 54 | 1032.8 |
| 20260905191414 | 80 | 135 | 0.0 | 0.0 | 0.00 | 0.00 | 0.00 | 56 | 1032.8 |
| 20260905190512 | 80 | 135 | 0.0 | 0.0 | 0.00 | 0.00 | 0.00 | 55 | 1032.8 |
| 20260905190413 | 80 | 135 | 0.0 | 0.0 | 0.00 | 0.00 | 0.00 | 54 | 1032.8 |
| 20260905185412 | 80 | 135 | 0.0 | 0.0 | 0.00 | 0.00 | 0.00 | 54 | 1032.8 |
| 20260905184413 | 80 | 180 | 0.0 | 0.0 | 0.00 | 0.00 | 0.00 | 55 | 1032.8 |
| 20260905183416 | 81 | 180 | 0.0 | 0.0 | 0.00 | 0.00 | 0.00 | 53 | 1032.9 |
| 20260905183313 | 81 | 180 | 0.0 | 1.0 | 0.00 | 0.00 | 0.00 | 53 | 1032.9 |
| 20260905182412 | 82 | 180 | 0.0 | 0.0 | 0.00 | 0.00 | 0.00 | 48 | 1033.0 |
| 20260905181413 | 83 | 217 | 0.0 | 0.0 | 0.00 | 0.00 | 0.00 | 48 | 1033.0 |
| 20260905181314 | 82 | 177 | 1.0 | 4.0 | 0.00 | 0.00 | 0.00 | 48 | 1033.0 |
| 20260905180312 | 81 | 135 | 0.0 | 0.0 | 0.00 | 0.00 | 0.00 | 48 | 1032.9 |
| 20260905174315 | 81 | 180 | 0.0 | 0.0 | 0.00 | 0.00 | 0.00 | 51 | 1033.1 |
| 20260905172414 | 81 | 185 | 0.0 | 0.0 | 0.00 | 0.00 | 0.00 | 49 | 1033.2 |
| 20260905171413 | 81 | 180 | 0.0 | 0.0 | 0.00 | 0.00 | 0.00 | 50 | 1033.3 |
| 20260905165514 | 82 | 90 | 1.0 | 2.0 | 0.00 | 0.00 | 0.00 | 48 | 1033.3 |
| 20260905163613 | 80 | 135 | 0.0 | 0.0 | 0.00 | 0.00 | 0.00 | 48 | 1033.7 |
| 20260905161613 | 80 | 135 | 0.0 | 0.0 | 0.00 | 0.00 | 0.00 | 50 | 1034.0 |
| 20260905160615 | 80 | 246 | 0.0 | 0.0 | 0.00 | 0.00 | 0.00 | 50 | 1033.9 |
| 20260905155613 | 80 | 115 | 1.0 | 3.0 | 0.00 | 0.00 | 0.00 | 50 | 1033.9 |
| 20260905154614 | 80 | 90 | 0.0 | 1.0 | 0.00 | 0.00 | 0.00 | 50 | 1033.8 |
| 20260905152613 | 80 | 180 | 0.0 | 1.0 | 0.00 | 0.00 | 0.00 | 52 | 1033.9 |
| 20260905151613 | 80 | 180 | 0.0 | 0.0 | 0.00 | 0.00 | 0.00 | 52 | 1034.0 |
| 20260905151513 | 80 | 180 | 0.0 | 0.0 | 0.00 | 0.00 | 0.00 | 52 | 1034.0 |
| 20260905150513 | 80 | 95 | 0.0 | 1.0 | 0.00 | 0.00 | 0.00 | 53 | 1033.9 |
| 20260905145514 | 79 | 164 | 1.0 | 4.0 | 0.00 | 0.00 | 0.00 | 54 | 1033.8 |
| 20260905145415 | 79 | 157 | 0.0 | 2.0 | 0.00 | 0.00 | 0.00 | 55 | 1033.7 |
| 20260905144514 | 79 | 135 | 0.0 | 1.0 | 0.00 | 0.00 | 0.00 | 55 | 1033.6 |
| 20260905143516 | 78 | 180 | 0.0 | 0.0 | 0.00 | 0.02 | 0.00 | 56 | 1033.7 |
| 20260905142515 | 77 | 90 | 1.0 | 2.0 | 0.00 | 0.02 | 0.00 | 59 | 1033.6 |
| 20260905141614 | 77 | 90 | 0.0 | 0.0 | 0.00 | 0.02 | 0.00 | 59 | 1033.6 |
| 20260905140614 | 77 | 117 | 0.0 | 1.0 | 0.00 | 0.02 | 0.00 | 61 | 1033.6 |
| 20260905135614 | 77 | 45 | 0.0 | 2.0 | 0.00 | 0.02 | 0.00 | 63 | 1033.5 |
| 20260905131714 | 72 | 225 | 0.0 | 0.0 | 0.00 | 0.02 | 0.00 | 74 | 1033.6 |
| 20260905130615 | 72 | 180 | 0.0 | 0.0 | 0.00 | 0.02 | 0.00 | 75 | 1033.5 |
| 20260905125614 | 71 | 180 | 0.0 | 0.0 | 0.00 | 0.02 | 0.00 | 78 | 1033.6 |
| 20260905124613 | 70 | 180 | 0.0 | 0.0 | 0.00 | 0.02 | 0.00 | 79 | 1033.8 |
| 20260905123614 | 70 | 180 | 0.0 | 0.0 | 0.00 | 0.02 | 0.00 | 79 | 1034.0 |
| 20260905123513 | 70 | 180 | 0.0 | 0.0 | 0.00 | 0.02 | 0.00 | 80 | 1034.0 |
| 20260905122414 | 70 | 180 | 0.0 | 0.0 | 0.00 | 0.02 | 0.00 | 82 | 1034.1 |
| 20260905121514 | 69 | 180 | 0.0 | 0.0 | 0.00 | 0.02 | 0.00 | 83 | 1033.8 |
| 20260905120516 | 69 | 180 | 0.0 | 0.0 | 0.00 | 0.02 | 0.00 | 83 | 1034.1 |
| 20260905115513 | 69 | 180 | 0.0 | 0.0 | 0.00 | 0.02 | 0.00 | 82 | 1034.1 |
| 20260905114514 | 69 | 180 | 0.0 | 0.0 | 0.00 | 0.02 | 0.00 | 83 | 1033.9 |
| 20260905113513 | 69 | 180 | 0.0 | 0.0 | 0.00 | 0.02 | 0.00 | 83 | 1033.7 |
| 20260905112516 | 69 | 180 | 0.0 | 0.0 | 0.00 | 0.02 | 0.00 | 82 | 1033.7 |
| 20260905105613 | 69 | 180 | 0.0 | 0.0 | 0.00 | 0.02 | 0.00 | 81 | 1033.3 |
| 20260905104614 | 69 | 180 | 0.0 | 0.0 | 0.00 | 0.02 | 0.00 | 81 | 1033.1 |
| 20260905103713 | 69 | 180 | 0.0 | 0.0 | 0.00 | 0.02 | 0.00 | 80 | 1033.1 |
| 20260905103614 | 69 | 180 | 0.0 | 0.0 | 0.00 | 0.02 | 0.00 | 81 | 1033.1 |
| 20260905102615 | 69 | 180 | 0.0 | 0.0 | 0.00 | 0.02 | 0.00 | 81 | 1033.0 |
| 20260905101615 | 69 | 180 | 0.0 | 0.0 | 0.00 | 0.02 | 0.00 | 80 | 1032.9 |
| 20260905095714 | 70 | 180 | 0.0 | 0.0 | 0.00 | 0.02 | 0.00 | 81 | 1033.0 |
| 20260905094715 | 70 | 180 | 0.0 | 0.0 | 0.00 | 0.02 | 0.00 | 81 | 1032.8 |
| 20260905092813 | 70 | 180 | 0.0 | 0.0 | 0.00 | 0.02 | 0.00 | 80 | 1032.7 |
| 20260905091815 | 70 | 180 | 0.0 | 0.0 | 0.00 | 0.02 | 0.00 | 80 | 1032.9 |
| 20260905090815 | 70 | 180 | 0.0 | 0.0 | 0.00 | 0.02 | 0.00 | 79 | 1032.9 |
| 20260905085814 | 70 | 180 | 0.0 | 0.0 | 0.00 | 0.02 | 0.00 | 80 | 1032.8 |
| 20260905084815 | 70 | 180 | 0.0 | 0.0 | 0.00 | 0.02 | 0.00 | 81 | 1032.7 |
| 20260905084713 | 70 | 180 | 0.0 | 0.0 | 0.00 | 0.02 | 0.00 | 81 | 1032.8 |
| 20260905083813 | 70 | 180 | 0.0 | 0.0 | 0.00 | 0.02 | 0.00 | 81 | 1032.6 |
| 20260905082813 | 70 | 180 | 0.0 | 0.0 | 0.00 | 0.02 | 0.00 | 81 | 1032.6 |
| 20260905081814 | 70 | 180 | 0.0 | 0.0 | 0.00 | 0.02 | 0.00 | 82 | 1032.6 |
| 20260905080912 | 70 | 180 | 0.0 | 0.0 | 0.00 | 0.02 | 0.00 | 83 | 1032.6 |
| 20260905075914 | 70 | 180 | 0.0 | 0.0 | 0.00 | 0.02 | 0.00 | 82 | 1032.8 |
| 20260905073916 | 70 | 180 | 0.0 | 0.0 | 0.00 | 0.02 | 0.00 | 82 | 1032.8 |